When you browse on this site, cookies collect data to enhance your experience and personalize the content and advertising you see.
Visit our Privacy Policy to learn more. By continuing to use the site, you agree to this use of cookies and data.
  • In United Kingdom
  • List of Countries
  • For 7 days
  • Water Temperature
  • Weather Map
  • Weather Widgets
  • user-avatar
    Login

    Hourly Weather Acaxochitlan

    Today, 22 January, Wednesday

    Time Temperature Precipitation Wind Pressure Humidity
    00:00 +8°C° 0 mm 1 mps 589 mmHg 92%
    01:00 +7°C° 0 mm 1 mps 588 mmHg 91%
    02:00 +6°C° 0 mm 2 mps 587 mmHg 90%
    03:00 +6°C° 0 mm 2 mps 587 mmHg 88%
    04:00 +6°C° 0 mm 2 mps 587 mmHg 86%
    05:00 +6°C° 0 mm 2 mps 587 mmHg 84%
    06:00 +8°C° 0 mm 2 mps 588 mmHg 78%
    07:00 +10°C° 0 mm 2 mps 589 mmHg 72%
    08:00 +13°C° 0 mm 2 mps 590 mmHg 66%
    09:00 +15°C° 0 mm 2 mps 590 mmHg 60%
    10:00 +16°C° 0 mm 2 mps 591 mmHg 53%
    11:00 +18°C° 0 mm 2 mps 591 mmHg 46%
    12:00 +19°C° 0 mm 2 mps 591 mmHg 46%
    13:00 +19°C° 0 mm 2 mps 590 mmHg 46%
    14:00 +19°C° 0 mm 2 mps 589 mmHg 46%
    15:00 +18°C° 0 mm 2 mps 589 mmHg 56%
    16:00 +16°C° 0 mm 1 mps 588 mmHg 66%
    17:00 +14°C° 0 mm 1 mps 587 mmHg 77%
    18:00 +14°C° 0 mm 1 mps 587 mmHg 76%
    19:00 +13°C° 0 mm 1 mps 588 mmHg 74%
    20:00 +13°C° 0 mm 1 mps 588 mmHg 73%
    21:00 +12°C° 0 mm 1 mps 588 mmHg 77%
    22:00 +12°C° 0 mm 1 mps 588 mmHg 80%
    23:00 +11°C° 0 mm 1 mps 588 mmHg 84%

    Tomorrow, 23 January, Thursday

    Time Temperature Precipitation Wind Pressure Humidity
    00:00 +11°C° 0 mm 1 mps 587 mmHg 86%
    01:00 +10°C° 0 mm 0 mps 587 mmHg 89%
    02:00 +10°C° 0 mm 0 mps 586 mmHg 91%
    03:00 +11°C° 0 mm 1 mps 586 mmHg 90%
    04:00 +11°C° 0 mm 1 mps 586 mmHg 89%
    05:00 +10°C° 0 mm 2 mps 586 mmHg 88%
    06:00 +12°C° 0 mm 1 mps 587 mmHg 81%
    07:00 +13°C° 0 mm 1 mps 588 mmHg 74%
    08:00 +15°C° 0 mm 1 mps 589 mmHg 67%
    09:00 +16°C° 0.1 mm 1 mps 590 mmHg 64%
    10:00 +17°C° 0.1 mm 2 mps 590 mmHg 60%
    11:00 +18°C° 0.1 mm 2 mps 590 mmHg 56%
    12:00 +17°C° 0.7 mm 2 mps 589 mmHg 63%
    13:00 +16°C° 0.7 mm 2 mps 588 mmHg 70%
    14:00 +15°C° 0.7 mm 2 mps 587 mmHg 76%
    15:00 +14°C° 0.7 mm 2 mps 587 mmHg 81%
    16:00 +13°C° 0.7 mm 2 mps 586 mmHg 87%
    17:00 +12°C° 0.7 mm 2 mps 586 mmHg 92%
    18:00 +11°C° 0.7 mm 1 mps 587 mmHg 91%
    19:00 +11°C° 0.7 mm 1 mps 587 mmHg 91%
    20:00 +10°C° 0.7 mm 1 mps 587 mmHg 90%
    21:00 +10°C° 0.9 mm 1 mps 587 mmHg 90%
    22:00 +10°C° 0.9 mm 1 mps 587 mmHg 90%
    23:00 +10°C° 0.9 mm 1 mps 587 mmHg 90%

    Day after tomorrow, 24 January, Friday

    Time Temperature Precipitation Wind Pressure Humidity
    00:00 +10°C° 0.5 mm 1 mps 587 mmHg 90%
    01:00 +10°C° 0.5 mm 1 mps 587 mmHg 90%
    02:00 +9°C° 0.5 mm 0 mps 587 mmHg 91%
    03:00 +9°C° 0.5 mm 0 mps 587 mmHg 92%
    04:00 +9°C° 0.5 mm 0 mps 587 mmHg 93%
    05:00 +9°C° 0.5 mm 0 mps 587 mmHg 93%
    06:00 +9°C° 0.1 mm 0 mps 587 mmHg 93%
    07:00 +9°C° 0.1 mm 0 mps 588 mmHg 92%
    08:00 +11°C° 0.1 mm 1 mps 589 mmHg 91%
    09:00 +11°C° 0.1 mm 1 mps 589 mmHg 88%
    10:00 +12°C° 0.1 mm 1 mps 589 mmHg 84%
    11:00 +13°C° 0.1 mm 1 mps 589 mmHg 80%
    12:00 +13°C° 0.2 mm 1 mps 589 mmHg 81%
    13:00 +13°C° 0.2 mm 2 mps 588 mmHg 83%
    14:00 +13°C° 0.2 mm 2 mps 587 mmHg 84%
    15:00 +13°C° 0.2 mm 1 mps 587 mmHg 88%
    16:00 +12°C° 0.2 mm 1 mps 587 mmHg 91%
    17:00 +12°C° 0.2 mm 1 mps 587 mmHg 95%
    18:00 +11°C° 0.1 mm 1 mps 587 mmHg 96%
    19:00 +11°C° 0.1 mm 1 mps 588 mmHg 96%
    20:00 +11°C° 0.1 mm 1 mps 588 mmHg 97%
    21:00 +11°C° 0 mm 1 mps 588 mmHg 97%
    22:00 +10°C° 0 mm 0 mps 588 mmHg 97%
    23:00 +10°C° 0 mm 0 mps 588 mmHg 97%

    25 January, Saturday

    Time Temperature Precipitation Wind Pressure Humidity
    00:00 +9°C° 0 mm 0 mps 587 mmHg 96%
    01:00 +9°C° 0 mm 0 mps 587 mmHg 95%
    02:00 +9°C° 0 mm 0 mps 587 mmHg 94%
    03:00 +10°C° 0 mm 1 mps 586 mmHg 93%
    04:00 +9°C° 0 mm 1 mps 586 mmHg 92%
    05:00 +9°C° 0 mm 1 mps 586 mmHg 92%
    06:00 +11°C° 0 mm 1 mps 587 mmHg 87%
    07:00 +12°C° 0 mm 1 mps 588 mmHg 82%
    08:00 +13°C° 0 mm 1 mps 590 mmHg 77%
    09:00 +15°C° 0 mm 1 mps 590 mmHg 69%
    10:00 +17°C° 0 mm 2 mps 591 mmHg 62%
    11:00 +19°C° 0 mm 2 mps 591 mmHg 55%
    12:00 +18°C° 0.2 mm 2 mps 591 mmHg 57%
    13:00 +18°C° 0.2 mm 2 mps 590 mmHg 59%
    14:00 +18°C° 0.2 mm 2 mps 589 mmHg 62%
    15:00 +17°C° 0.2 mm 2 mps 588 mmHg 69%
    16:00 +16°C° 0.2 mm 1 mps 588 mmHg 75%
    17:00 +15°C° 0.2 mm 1 mps 587 mmHg 82%
    18:00 +14°C° 0.1 mm 1 mps 588 mmHg 81%
    19:00 +14°C° 0.1 mm 1 mps 588 mmHg 80%
    20:00 +13°C° 0.1 mm 1 mps 589 mmHg 79%
    21:00 +13°C° 0 mm 1 mps 588 mmHg 80%
    22:00 +12°C° 0 mm 1 mps 588 mmHg 81%
    23:00 +11°C° 0 mm 1 mps 587 mmHg 81%

    26 January, Sunday

    Time Temperature Precipitation Wind Pressure Humidity
    00:00 +11°C° 0 mm 1 mps 587 mmHg 80%
    01:00 +11°C° 0 mm 1 mps 587 mmHg 79%
    02:00 +10°C° 0 mm 2 mps 586 mmHg 78%
    03:00 +10°C° 0 mm 2 mps 586 mmHg 78%
    04:00 +10°C° 0 mm 2 mps 586 mmHg 78%
    05:00 +10°C° 0 mm 2 mps 586 mmHg 77%
    06:00 +12°C° 0 mm 1 mps 587 mmHg 73%
    07:00 +14°C° 0 mm 1 mps 589 mmHg 69%
    08:00 +14°C° 0 mm 0 mps 590 mmHg 65%
    09:00 +16°C° 0.1 mm 1 mps 590 mmHg 61%
    10:00 +19°C° 0.1 mm 1 mps 590 mmHg 57%
    11:00 +20°C° 0.1 mm 1 mps 591 mmHg 53%
    12:00 +18°C° 0.8 mm 2 mps 590 mmHg 57%
    13:00 +18°C° 0.8 mm 2 mps 589 mmHg 62%
    14:00 +17°C° 0.8 mm 2 mps 588 mmHg 66%
    15:00 +16°C° 0.9 mm 2 mps 588 mmHg 74%
    16:00 +14°C° 0.9 mm 1 mps 587 mmHg 82%
    17:00 +13°C° 0.9 mm 1 mps 587 mmHg 89%
    18:00 +12°C° 0.3 mm 1 mps 587 mmHg 91%
    19:00 +12°C° 0.3 mm 1 mps 587 mmHg 92%
    20:00 +10°C° 0.3 mm 0 mps 588 mmHg 94%
    21:00 +10°C° 0.2 mm 0 mps 588 mmHg 95%
    22:00 +9°C° 0.2 mm 0 mps 588 mmHg 95%
    23:00 +9°C° 0.2 mm 0 mps 588 mmHg 96%

    27 January, Monday

    Time Temperature Precipitation Wind Pressure Humidity
    00:00 +9°C° 0.2 mm 0 mps 588 mmHg 96%
    01:00 +9°C° 0.2 mm 0 mps 587 mmHg 97%
    02:00 +9°C° 0.2 mm 0 mps 587 mmHg 97%
    03:00 +9°C° 0.1 mm 0 mps 587 mmHg 97%
    04:00 +9°C° 0.1 mm 0 mps 587 mmHg 97%
    05:00 +9°C° 0.1 mm 0 mps 587 mmHg 97%
    06:00 +9°C° 0 mm 0 mps 588 mmHg 92%
    07:00 +10°C° 0 mm 0 mps 588 mmHg 87%
    08:00 +11°C° 0 mm 0 mps 589 mmHg 83%
    09:00 +14°C° 0 mm 1 mps 590 mmHg 74%
    10:00 +15°C° 0 mm 1 mps 590 mmHg 66%
    11:00 +17°C° 0 mm 2 mps 590 mmHg 57%
    12:00 +17°C° 0 mm 2 mps 589 mmHg 60%
    13:00 +16°C° 0 mm 2 mps 589 mmHg 63%
    14:00 +16°C° 0 mm 2 mps 588 mmHg 65%
    15:00 +15°C° 0 mm 2 mps 587 mmHg 73%
    16:00 +14°C° 0 mm 1 mps 587 mmHg 80%
    17:00 +13°C° 0 mm 1 mps 586 mmHg 88%
    18:00 +12°C° 0 mm 1 mps 586 mmHg 89%
    19:00 +11°C° 0 mm 1 mps 587 mmHg 90%
    20:00 +10°C° 0 mm 0 mps 587 mmHg 91%
    21:00 +11°C° 0 mm 1 mps 587 mmHg 86%
    22:00 +10°C° 0 mm 1 mps 586 mmHg 82%
    23:00 +9°C° 0 mm 2 mps 586 mmHg 78%
    Show more